USA 81

Last updated on Wed Jul 02 2025 00:02:14 GMT+0000 (Coordinated Universal Time)

1 21949U 92023A 25182.50928063 .00000148 00000+0 47541-4 0 9999 2 21949 85.0077 276.3151 0002712 99.2511 260.8989 14.32249299 58839
UTC large
Height (km)
Speed (km/s)
/
Latitude / Longitude
Inclination (degrees)
Orbital Period (minutes)
Azimuth
Elevation
Range (km)
Doppler Factor

Next 0 passes for location: London (51.5072 / 0.1276)

Sorry there are no passes over London.